TimePST,TemperatureF,Dew PointF,Humidity,Sea Level PressureIn,VisibilityMPH,Wind Direction,Wind SpeedMPH,Gust SpeedMPH,PrecipitationIn,Events,Conditions,WindDirDegrees,DateUTC
12:53 AM,60.1,16.0,18,30.13,10.0,NE,4.6,-,N/A,,Clear,40,2013-01-20 08:53:00
1:53 AM,60.1,15.1,17,30.12,10.0,NNE,6.9,-,N/A,,Clear,20,2013-01-20 09:53:00
2:53 AM,55.9,17.1,22,30.12,10.0,NE,8.1,-,N/A,,Clear,50,2013-01-20 10:53:00
3:53 AM,55.9,16.0,21,30.11,10.0,Calm,Calm,-,N/A,,Clear,0,2013-01-20 11:53:00
4:53 AM,52.0,18.0,26,30.11,10.0,ENE,4.6,-,N/A,,Partly Cloudy,70,2013-01-20 12:53:00
5:53 AM,54.0,16.0,22,30.12,10.0,ENE,4.6,-,N/A,,Partly Cloudy,70,2013-01-20 13:53:00
6:53 AM,55.9,17.1,22,30.12,10.0,Variable,4.6,-,N/A,,Partly Cloudy,0,2013-01-20 14:53:00
7:53 AM,57.0,17.1,21,30.13,10.0,Calm,Calm,-,N/A,,Partly Cloudy,0,2013-01-20 15:53:00
8:53 AM,64.0,18.0,17,30.14,10.0,NNE,4.6,-,N/A,,Partly Cloudy,20,2013-01-20 16:53:00
9:53 AM,70.0,16.0,13,30.14,10.0,NE,4.6,-,N/A,,Partly Cloudy,50,2013-01-20 17:53:00
10:53 AM,73.0,15.1,11,30.12,10.0,NE,5.8,-,N/A,,Partly Cloudy,40,2013-01-20 18:53:00
11:53 AM,75.9,14.0,10,30.09,10.0,Variable,4.6,-,N/A,,Partly Cloudy,0,2013-01-20 19:53:00
12:53 PM,78.1,9.0,7,30.04,10.0,Calm,Calm,-,N/A,,Partly Cloudy,0,2013-01-20 20:53:00
1:53 PM,80.1,9.0,7,30.02,10.0,Calm,Calm,-,N/A,,Partly Cloudy,0,2013-01-20 21:53:00
2:53 PM,73.9,28.0,18,30.01,10.0,West,11.5,-,N/A,,Partly Cloudy,260,2013-01-20 22:53:00
3:53 PM,71.1,23.0,16,30.02,10.0,West,9.2,-,N/A,,Partly Cloudy,270,2013-01-20 23:53:00
4:53 PM,66.0,25.0,21,30.04,10.0,West,11.5,-,N/A,,Clear,280,2013-01-21 00:53:00
5:53 PM,61.0,34.0,36,30.04,10.0,West,6.9,-,N/A,,Clear,270,2013-01-21 01:53:00
6:53 PM,60.1,37.9,44,30.06,10.0,West,5.8,-,N/A,,Clear,260,2013-01-21 02:53:00
7:53 PM,60.1,43.0,53,30.06,10.0,West,3.5,-,N/A,,Clear,260,2013-01-21 03:53:00
8:53 PM,59.0,43.0,55,30.07,10.0,SE,3.5,-,N/A,,Clear,130,2013-01-21 04:53:00
9:53 PM,57.9,39.9,51,30.08,10.0,Calm,Calm,-,N/A,,Clear,0,2013-01-21 05:53:00
10:53 PM,60.1,30.9,33,30.07,10.0,Variable,4.6,-,N/A,,Clear,0,2013-01-21 06:53:00
11:53 PM,59.0,25.0,27,30.06,10.0,Calm,Calm,-,N/A,,Clear,0,2013-01-21 07:53:00